owner,sensor,date,latitude,longitude,vertical_datum,sea_water_practical_salinity,qcFlag 
NERRS,ioos:station:NOAA.NERRS:rkblhwq:1,2015-11-01T00:45:00Z,26.0257,-81.7332,1.67,28.8,1111122 
NERRS,ioos:station:NOAA.NERRS:rkblhwq:1,2015-11-01T01:45:00Z,26.0257,-81.7332,1.59,28.7,1111122 
NERRS,ioos:station:NOAA.NERRS:rkblhwq:1,2015-11-01T02:45:00Z,26.0257,-81.7332,1.52,28.6,1111122 
NERRS,ioos:station:NOAA.NERRS:rkblhwq:1,2015-11-01T03:45:00Z,26.0257,-81.7332,1.55,28.0,1111122 
NERRS,ioos:station:NOAA.NERRS:rkblhwq:1,2015-11-01T04:45:00Z,26.0257,-81.7332,1.64,29.1,1111122 
NERRS,ioos:station:NOAA.NERRS:rkblhwq:1,2015-11-01T05:45:00Z,26.0257,-81.7332,1.73,28.8,1111122 
NERRS,ioos:station:NOAA.NERRS:rkblhwq:1,2015-11-01T06:45:00Z,26.0257,-81.7332,1.81,29.7,1111122 
NERRS,ioos:station:NOAA.NERRS:rkblhwq:1,2015-11-01T07:45:00Z,26.0257,-81.7332,1.88,29.9,1111122 
NERRS,ioos:station:NOAA.NERRS:rkblhwq:1,2015-11-01T08:45:00Z,26.0257,-81.7332,1.92,30.3,1111122 
NERRS,ioos:station:NOAA.NERRS:rkblhwq:1,2015-11-01T09:45:00Z,26.0257,-81.7332,1.91,30.7,1111122 
NERRS,ioos:station:NOAA.NERRS:rkblhwq:1,2015-11-01T10:45:00Z,26.0257,-81.7332,1.84,30.2,1111122 
NERRS,ioos:station:NOAA.NERRS:rkblhwq:1,2015-11-01T11:45:00Z,26.0257,-81.7332,1.73,30.1,1111122 
NERRS,ioos:station:NOAA.NERRS:rkblhwq:1,2015-11-01T12:45:00Z,26.0257,-81.7332,1.59,29.4,1111122 
NERRS,ioos:station:NOAA.NERRS:rkblhwq:1,2015-11-01T13:45:00Z,26.0257,-81.7332,1.44,29.0,1111122 
NERRS,ioos:station:NOAA.NERRS:rkblhwq:1,2015-11-01T14:45:00Z,26.0257,-81.7332,1.28,28.3,1111122 
NERRS,ioos:station:NOAA.NERRS:rkblhwq:1,2015-11-01T15:45:00Z,26.0257,-81.7332,1.16,28.3,1111122 
NERRS,ioos:station:NOAA.NERRS:rkblhwq:1,2015-11-01T16:45:00Z,26.0257,-81.7332,1.12,28.2,1111122 
NERRS,ioos:station:NOAA.NERRS:rkblhwq:1,2015-11-01T17:45:00Z,26.0257,-81.7332,1.21,27.2,1111122 
NERRS,ioos:station:NOAA.NERRS:rkblhwq:1,2015-11-01T18:45:00Z,26.0257,-81.7332,1.34,27.6,1111122 
NERRS,ioos:station:NOAA.NERRS:rkblhwq:1,2015-11-01T19:45:00Z,26.0257,-81.7332,1.49,28.1,1111122 
NERRS,ioos:station:NOAA.NERRS:rkblhwq:1,2015-11-01T20:45:00Z,26.0257,-81.7332,1.62,28.7,1111122 
NERRS,ioos:station:NOAA.NERRS:rkblhwq:1,2015-11-01T21:45:00Z,26.0257,-81.7332,1.74,28.8,1111122 
NERRS,ioos:station:NOAA.NERRS:rkblhwq:1,2015-11-01T22:45:00Z,26.0257,-81.7332,1.82,29.4,1111122 
NERRS,ioos:station:NOAA.NERRS:rkblhwq:1,2015-11-01T23:45:00Z,26.0257,-81.7332,1.79,29.2,1111122 
NERRS,ioos:station:NOAA.NERRS:rkblhwq:1,2015-11-02T00:45:00Z,26.0257,-81.7332,1.71,29.2,1111122 
NERRS,ioos:station:NOAA.NERRS:rkblhwq:1,2015-11-02T01:45:00Z,26.0257,-81.7332,1.63,29.2,1111122 
NERRS,ioos:station:NOAA.NERRS:rkblhwq:1,2015-11-02T02:45:00Z,26.0257,-81.7332,1.56,28.9,1111122 
NERRS,ioos:station:NOAA.NERRS:rkblhwq:1,2015-11-02T03:45:00Z,26.0257,-81.7332,1.52,29.0,1111122 
NERRS,ioos:station:NOAA.NERRS:rkblhwq:1,2015-11-02T04:45:00Z,26.0257,-81.7332,1.55,28.8,1111122 
NERRS,ioos:station:NOAA.NERRS:rkblhwq:1,2015-11-02T05:45:00Z,26.0257,-81.7332,1.62,29.5,1111122 
NERRS,ioos:station:NOAA.NERRS:rkblhwq:1,2015-11-02T06:45:00Z,26.0257,-81.7332,1.69,29.1,1111122 
NERRS,ioos:station:NOAA.NERRS:rkblhwq:1,2015-11-02T07:45:00Z,26.0257,-81.7332,1.75,29.7,1111122 
NERRS,ioos:station:NOAA.NERRS:rkblhwq:1,2015-11-02T08:45:00Z,26.0257,-81.7332,1.8,30.0,1111122 
NERRS,ioos:station:NOAA.NERRS:rkblhwq:1,2015-11-02T09:45:00Z,26.0257,-81.7332,1.84,30.2,1111122 
NERRS,ioos:station:NOAA.NERRS:rkblhwq:1,2015-11-02T10:45:00Z,26.0257,-81.7332,1.85,30.4,1111122 
NERRS,ioos:station:NOAA.NERRS:rkblhwq:1,2015-11-02T11:45:00Z,26.0257,-81.7332,1.79,30.1,1111122 
NERRS,ioos:station:NOAA.NERRS:rkblhwq:1,2015-11-02T12:45:00Z,26.0257,-81.7332,1.68,29.9,1111122 
NERRS,ioos:station:NOAA.NERRS:rkblhwq:1,2015-11-02T13:45:00Z,26.0257,-81.7332,1.54,29.7,1111122 
NERRS,ioos:station:NOAA.NERRS:rkblhwq:1,2015-11-02T14:45:00Z,26.0257,-81.7332,1.4,29.4,1111122 
NERRS,ioos:station:NOAA.NERRS:rkblhwq:1,2015-11-02T15:45:00Z,26.0257,-81.7332,1.28,29.3,1111122 
NERRS,ioos:station:NOAA.NERRS:rkblhwq:1,2015-11-02T16:45:00Z,26.0257,-81.7332,1.17,28.8,1111122 
NERRS,ioos:station:NOAA.NERRS:rkblhwq:1,2015-11-02T17:45:00Z,26.0257,-81.7332,1.15,28.5,1111122 
NERRS,ioos:station:NOAA.NERRS:rkblhwq:1,2015-11-02T18:45:00Z,26.0257,-81.7332,1.26,27.7,1111122 
NERRS,ioos:station:NOAA.NERRS:rkblhwq:1,2015-11-02T19:45:00Z,26.0257,-81.7332,1.38,27.9,1111122 
NERRS,ioos:station:NOAA.NERRS:rkblhwq:1,2015-11-02T20:45:00Z,26.0257,-81.7332,1.5,28.5,1111122 
NERRS,ioos:station:NOAA.NERRS:rkblhwq:1,2015-11-02T21:45:00Z,26.0257,-81.7332,1.61,28.8,1111122 
NERRS,ioos:station:NOAA.NERRS:rkblhwq:1,2015-11-02T22:45:00Z,26.0257,-81.7332,1.69,29.1,1111122 
NERRS,ioos:station:NOAA.NERRS:rkblhwq:1,2015-11-02T23:45:00Z,26.0257,-81.7332,1.74,29.2,1111122 
NERRS,ioos:station:NOAA.NERRS:rkblhwq:1,2015-11-03T00:45:00Z,26.0257,-81.7332,1.72,29.4,1111122 
NERRS,ioos:station:NOAA.NERRS:rkblhwq:1,2015-11-03T01:45:00Z,26.0257,-81.7332,1.65,29.2,1111122 
NERRS,ioos:station:NOAA.NERRS:rkblhwq:1,2015-11-03T02:45:00Z,26.0257,-81.7332,1.59,29.2,1111122 
NERRS,ioos:station:NOAA.NERRS:rkblhwq:1,2015-11-03T03:45:00Z,26.0257,-81.7332,1.53,29.0,1111122 
NERRS,ioos:station:NOAA.NERRS:rkblhwq:1,2015-11-03T04:45:00Z,26.0257,-81.7332,1.48,29.0,1111122 
NERRS,ioos:station:NOAA.NERRS:rkblhwq:1,2015-11-03T05:45:00Z,26.0257,-81.7332,1.46,28.8,1111122 
NERRS,ioos:station:NOAA.NERRS:rkblhwq:1,2015-11-03T06:45:00Z,26.0257,-81.7332,1.52,29.1,1111122 
NERRS,ioos:station:NOAA.NERRS:rkblhwq:1,2015-11-03T07:45:00Z,26.0257,-81.7332,1.57,29.5,1111122 
NERRS,ioos:station:NOAA.NERRS:rkblhwq:1,2015-11-03T08:45:00Z,26.0257,-81.7332,1.63,29.1,1111122 
NERRS,ioos:station:NOAA.NERRS:rkblhwq:1,2015-11-03T09:45:00Z,26.0257,-81.7332,1.68,29.1,1111122 
NERRS,ioos:station:NOAA.NERRS:rkblhwq:1,2015-11-03T10:45:00Z,26.0257,-81.7332,1.74,29.8,1111122 
NERRS,ioos:station:NOAA.NERRS:rkblhwq:1,2015-11-03T11:45:00Z,26.0257,-81.7332,1.77,29.8,1111122 
NERRS,ioos:station:NOAA.NERRS:rkblhwq:1,2015-11-03T12:45:00Z,26.0257,-81.7332,1.73,29.5,1111122 
NERRS,ioos:station:NOAA.NERRS:rkblhwq:1,2015-11-03T13:45:00Z,26.0257,-81.7332,1.64,29.6,1111122 
NERRS,ioos:station:NOAA.NERRS:rkblhwq:1,2015-11-03T14:45:00Z,26.0257,-81.7332,1.53,29.4,1111122 
NERRS,ioos:station:NOAA.NERRS:rkblhwq:1,2015-11-03T15:45:00Z,26.0257,-81.7332,1.42,29.2,1111122 
NERRS,ioos:station:NOAA.NERRS:rkblhwq:1,2015-11-03T16:45:00Z,26.0257,-81.7332,1.31,29.1,1111122 
NERRS,ioos:station:NOAA.NERRS:rkblhwq:1,2015-11-03T17:45:00Z,26.0257,-81.7332,1.22,29.1,1111122 
NERRS,ioos:station:NOAA.NERRS:rkblhwq:1,2015-11-03T18:45:00Z,26.0257,-81.7332,1.22,27.9,1111122 
NERRS,ioos:station:NOAA.NERRS:rkblhwq:1,2015-11-03T19:45:00Z,26.0257,-81.7332,1.31,27.6,1111122 
NERRS,ioos:station:NOAA.NERRS:rkblhwq:1,2015-11-03T20:45:00Z,26.0257,-81.7332,1.42,28.1,1111122 
NERRS,ioos:station:NOAA.NERRS:rkblhwq:1,2015-11-03T21:45:00Z,26.0257,-81.7332,1.53,28.3,1111122 
NERRS,ioos:station:NOAA.NERRS:rkblhwq:1,2015-11-03T22:45:00Z,26.0257,-81.7332,1.62,28.6,1111122 
NERRS,ioos:station:NOAA.NERRS:rkblhwq:1,2015-11-03T23:45:00Z,26.0257,-81.7332,1.7,28.9,1111122 
NERRS,ioos:station:NOAA.NERRS:rkblhwq:1,2015-11-04T00:45:00Z,26.0257,-81.7332,1.76,29.2,1111122 
NERRS,ioos:station:NOAA.NERRS:rkblhwq:1,2015-11-04T01:45:00Z,26.0257,-81.7332,1.76,28.9,1111122 
NERRS,ioos:station:NOAA.NERRS:rkblhwq:1,2015-11-04T02:45:00Z,26.0257,-81.7332,1.7,28.9,1111122 
NERRS,ioos:station:NOAA.NERRS:rkblhwq:1,2015-11-04T03:45:00Z,26.0257,-81.7332,1.62,28.7,1111122 
NERRS,ioos:station:NOAA.NERRS:rkblhwq:1,2015-11-04T04:45:00Z,26.0257,-81.7332,1.54,28.6,1111122 
NERRS,ioos:station:NOAA.NERRS:rkblhwq:1,2015-11-04T05:45:00Z,26.0257,-81.7332,1.45,28.8,1111122 
NERRS,ioos:station:NOAA.NERRS:rkblhwq:1,2015-11-04T06:45:00Z,26.0257,-81.7332,1.4,28.9,1111122 
NERRS,ioos:station:NOAA.NERRS:rkblhwq:1,2015-11-04T07:45:00Z,26.0257,-81.7332,1.42,27.7,1111122 
NERRS,ioos:station:NOAA.NERRS:rkblhwq:1,2015-11-04T08:45:00Z,26.0257,-81.7332,1.5,28.9,1111122 
NERRS,ioos:station:NOAA.NERRS:rkblhwq:1,2015-11-04T09:45:00Z,26.0257,-81.7332,1.58,28.3,1111122 
NERRS,ioos:station:NOAA.NERRS:rkblhwq:1,2015-11-04T10:45:00Z,26.0257,-81.7332,1.64,28.4,1111122 
NERRS,ioos:station:NOAA.NERRS:rkblhwq:1,2015-11-04T11:45:00Z,26.0257,-81.7332,1.7,29.2,1111122 
NERRS,ioos:station:NOAA.NERRS:rkblhwq:1,2015-11-04T12:45:00Z,26.0257,-81.7332,1.74,29.2,1111122 
NERRS,ioos:station:NOAA.NERRS:rkblhwq:1,2015-11-04T13:45:00Z,26.0257,-81.7332,1.72,29.0,1111122 
NERRS,ioos:station:NOAA.NERRS:rkblhwq:1,2015-11-04T14:45:00Z,26.0257,-81.7332,1.64,28.8,1111122 
NERRS,ioos:station:NOAA.NERRS:rkblhwq:1,2015-11-04T15:45:00Z,26.0257,-81.7332,1.53,28.6,1111122 
NERRS,ioos:station:NOAA.NERRS:rkblhwq:1,2015-11-04T17:45:00Z,26.0257,-81.7332,1.31,28.0,1111122 
NERRS,ioos:station:NOAA.NERRS:rkblhwq:1,2015-11-04T18:45:00Z,26.0257,-81.7332,0.69,25.3,1111122 
NERRS,ioos:station:NOAA.NERRS:rkblhwq:1,2015-11-04T19:45:00Z,26.0257,-81.7332,0.67,25.7,1111122 
NERRS,ioos:station:NOAA.NERRS:rkblhwq:1,2015-11-04T20:45:00Z,26.0257,-81.7332,0.73,27.5,1111122 
NERRS,ioos:station:NOAA.NERRS:rkblhwq:1,2015-11-04T21:45:00Z,26.0257,-81.7332,0.84,27.2,1111122 
NERRS,ioos:station:NOAA.NERRS:rkblhwq:1,2015-11-04T22:45:00Z,26.0257,-81.7332,0.95,28.1,1111122 
NERRS,ioos:station:NOAA.NERRS:rkblhwq:1,2015-11-04T23:45:00Z,26.0257,-81.7332,1.07,28.0,1111122 
NERRS,ioos:station:NOAA.NERRS:rkblhwq:1,2015-11-05T00:45:00Z,26.0257,-81.7332,1.17,28.4,1111122 
NERRS,ioos:station:NOAA.NERRS:rkblhwq:1,2015-11-05T01:45:00Z,26.0257,-81.7332,1.24,29.0,1111122 
NERRS,ioos:station:NOAA.NERRS:rkblhwq:1,2015-11-05T02:45:00Z,26.0257,-81.7332,1.26,28.7,1111122 
NERRS,ioos:station:NOAA.NERRS:rkblhwq:1,2015-11-05T03:45:00Z,26.0257,-81.7332,1.17,27.4,1111122 
NERRS,ioos:station:NOAA.NERRS:rkblhwq:1,2015-11-05T04:45:00Z,26.0257,-81.7332,1.07,26.7,1111122 
NERRS,ioos:station:NOAA.NERRS:rkblhwq:1,2015-11-05T05:45:00Z,26.0257,-81.7332,0.96,26.2,1111122 
NERRS,ioos:station:NOAA.NERRS:rkblhwq:1,2015-11-05T06:45:00Z,26.0257,-81.7332,0.85,26.3,1111122 
NERRS,ioos:station:NOAA.NERRS:rkblhwq:1,2015-11-05T07:45:00Z,26.0257,-81.7332,0.78,25.2,1111122 
NERRS,ioos:station:NOAA.NERRS:rkblhwq:1,2015-11-05T08:45:00Z,26.0257,-81.7332,0.77,25.4,1111122 
NERRS,ioos:station:NOAA.NERRS:rkblhwq:1,2015-11-05T09:45:00Z,26.0257,-81.7332,0.85,27.7,1111122 
NERRS,ioos:station:NOAA.NERRS:rkblhwq:1,2015-11-05T10:45:00Z,26.0257,-81.7332,0.95,27.1,1111122 
NERRS,ioos:station:NOAA.NERRS:rkblhwq:1,2015-11-05T11:45:00Z,26.0257,-81.7332,1.03,27.1,1111122 
NERRS,ioos:station:NOAA.NERRS:rkblhwq:1,2015-11-05T12:45:00Z,26.0257,-81.7332,1.1,28.1,1111122 
NERRS,ioos:station:NOAA.NERRS:rkblhwq:1,2015-11-05T13:45:00Z,26.0257,-81.7332,1.13,27.7,1111122 
NERRS,ioos:station:NOAA.NERRS:rkblhwq:1,2015-11-05T14:45:00Z,26.0257,-81.7332,1.11,26.7,1111122 
NERRS,ioos:station:NOAA.NERRS:rkblhwq:1,2015-11-05T15:45:00Z,26.0257,-81.7332,1.03,26.4,1111122 
NERRS,ioos:station:NOAA.NERRS:rkblhwq:1,2015-11-05T16:45:00Z,26.0257,-81.7332,0.93,26.1,1111122 
NERRS,ioos:station:NOAA.NERRS:rkblhwq:1,2015-11-05T17:45:00Z,26.0257,-81.7332,0.82,25.9,1111122 
NERRS,ioos:station:NOAA.NERRS:rkblhwq:1,2015-11-05T18:45:00Z,26.0257,-81.7332,0.73,25.7,1111122 
NERRS,ioos:station:NOAA.NERRS:rkblhwq:1,2015-11-05T19:45:00Z,26.0257,-81.7332,0.66,25.5,1111122 
NERRS,ioos:station:NOAA.NERRS:rkblhwq:1,2015-11-05T20:45:00Z,26.0257,-81.7332,0.69,25.9,1111122 
NERRS,ioos:station:NOAA.NERRS:rkblhwq:1,2015-11-05T21:45:00Z,26.0257,-81.7332,0.77,26.7,1111122 
NERRS,ioos:station:NOAA.NERRS:rkblhwq:1,2015-11-05T22:45:00Z,26.0257,-81.7332,0.88,26.8,1111122 
NERRS,ioos:station:NOAA.NERRS:rkblhwq:1,2015-11-05T23:45:00Z,26.0257,-81.7332,1.01,27.6,1111122 
NERRS,ioos:station:NOAA.NERRS:rkblhwq:1,2015-11-06T00:45:00Z,26.0257,-81.7332,1.11,28.1,1111122 
NERRS,ioos:station:NOAA.NERRS:rkblhwq:1,2015-11-06T01:45:00Z,26.0257,-81.7332,1.19,28.9,1111122 
NERRS,ioos:station:NOAA.NERRS:rkblhwq:1,2015-11-06T02:45:00Z,26.0257,-81.7332,1.22,28.6,1111122 
NERRS,ioos:station:NOAA.NERRS:rkblhwq:1,2015-11-06T03:45:00Z,26.0257,-81.7332,1.18,26.8,1111122 
NERRS,ioos:station:NOAA.NERRS:rkblhwq:1,2015-11-06T04:45:00Z,26.0257,-81.7332,1.08,26.6,1111122 
NERRS,ioos:station:NOAA.NERRS:rkblhwq:1,2015-11-06T05:45:00Z,26.0257,-81.7332,0.97,26.8,1111122 
NERRS,ioos:station:NOAA.NERRS:rkblhwq:1,2015-11-06T06:45:00Z,26.0257,-81.7332,0.85,26.3,1111122 
NERRS,ioos:station:NOAA.NERRS:rkblhwq:1,2015-11-06T08:45:00Z,26.0257,-81.7332,0.68,25.7,1111122 
NERRS,ioos:station:NOAA.NERRS:rkblhwq:1,2015-11-06T09:45:00Z,26.0257,-81.7332,0.71,25.7,1111122 
NERRS,ioos:station:NOAA.NERRS:rkblhwq:1,2015-11-06T10:45:00Z,26.0257,-81.7332,0.82,27.2,1111122 
NERRS,ioos:station:NOAA.NERRS:rkblhwq:1,2015-11-06T11:45:00Z,26.0257,-81.7332,0.94,26.9,1111122 
NERRS,ioos:station:NOAA.NERRS:rkblhwq:1,2015-11-06T12:45:00Z,26.0257,-81.7332,1.06,27.6,1111122 
NERRS,ioos:station:NOAA.NERRS:rkblhwq:1,2015-11-06T13:45:00Z,26.0257,-81.7332,1.14,28.5,1111122 
NERRS,ioos:station:NOAA.NERRS:rkblhwq:1,2015-11-06T14:45:00Z,26.0257,-81.7332,1.21,28.9,1111122 
NERRS,ioos:station:NOAA.NERRS:rkblhwq:1,2015-11-06T15:45:00Z,26.0257,-81.7332,1.22,28.7,1111122 
NERRS,ioos:station:NOAA.NERRS:rkblhwq:1,2015-11-06T16:45:00Z,26.0257,-81.7332,1.12,26.4,1111122 
NERRS,ioos:station:NOAA.NERRS:rkblhwq:1,2015-11-06T17:45:00Z,26.0257,-81.7332,1.01,26.3,1111122 
NERRS,ioos:station:NOAA.NERRS:rkblhwq:1,2015-11-06T18:45:00Z,26.0257,-81.7332,0.89,26.3,1111122 
NERRS,ioos:station:NOAA.NERRS:rkblhwq:1,2015-11-06T19:45:00Z,26.0257,-81.7332,0.79,26.4,1111122 
NERRS,ioos:station:NOAA.NERRS:rkblhwq:1,2015-11-06T20:45:00Z,26.0257,-81.7332,0.72,26.1,1111122 
NERRS,ioos:station:NOAA.NERRS:rkblhwq:1,2015-11-06T21:45:00Z,26.0257,-81.7332,0.72,26.1,1111122 
NERRS,ioos:station:NOAA.NERRS:rkblhwq:1,2015-11-06T22:45:00Z,26.0257,-81.7332,0.81,28.0,1111122 
NERRS,ioos:station:NOAA.NERRS:rkblhwq:1,2015-11-06T23:45:00Z,26.0257,-81.7332,0.93,27.5,1111122 
NERRS,ioos:station:NOAA.NERRS:rkblhwq:1,2015-11-07T00:45:00Z,26.0257,-81.7332,1.05,27.9,1111122 
NERRS,ioos:station:NOAA.NERRS:rkblhwq:1,2015-11-07T01:45:00Z,26.0257,-81.7332,1.17,28.3,1111122 
NERRS,ioos:station:NOAA.NERRS:rkblhwq:1,2015-11-07T02:45:00Z,26.0257,-81.7332,1.27,28.9,1111122 
NERRS,ioos:station:NOAA.NERRS:rkblhwq:1,2015-11-07T03:45:00Z,26.0257,-81.7332,1.3,29.0,1111122 
NERRS,ioos:station:NOAA.NERRS:rkblhwq:1,2015-11-07T04:45:00Z,26.0257,-81.7332,1.23,28.2,1111122 
NERRS,ioos:station:NOAA.NERRS:rkblhwq:1,2015-11-07T05:45:00Z,26.0257,-81.7332,1.11,27.5,1111122 
NERRS,ioos:station:NOAA.NERRS:rkblhwq:1,2015-11-07T06:45:00Z,26.0257,-81.7332,0.97,27.1,1111122 
NERRS,ioos:station:NOAA.NERRS:rkblhwq:1,2015-11-07T07:45:00Z,26.0257,-81.7332,0.83,26.8,1111122 
NERRS,ioos:station:NOAA.NERRS:rkblhwq:1,2015-11-07T08:45:00Z,26.0257,-81.7332,0.7,26.8,1111122 
NERRS,ioos:station:NOAA.NERRS:rkblhwq:1,2015-11-07T09:45:00Z,26.0257,-81.7332,0.61,26.7,1111122 
NERRS,ioos:station:NOAA.NERRS:rkblhwq:1,2015-11-07T10:45:00Z,26.0257,-81.7332,0.64,25.9,1111122 
NERRS,ioos:station:NOAA.NERRS:rkblhwq:1,2015-11-07T11:45:00Z,26.0257,-81.7332,0.77,27.0,1111122 
NERRS,ioos:station:NOAA.NERRS:rkblhwq:1,2015-11-07T12:45:00Z,26.0257,-81.7332,0.89,27.4,1111122 
NERRS,ioos:station:NOAA.NERRS:rkblhwq:1,2015-11-07T13:45:00Z,26.0257,-81.7332,1.02,27.7,1111122 
NERRS,ioos:station:NOAA.NERRS:rkblhwq:1,2015-11-07T14:45:00Z,26.0257,-81.7332,1.14,28.4,1111122 
NERRS,ioos:station:NOAA.NERRS:rkblhwq:1,2015-11-07T15:45:00Z,26.0257,-81.7332,1.22,28.7,1111122 
NERRS,ioos:station:NOAA.NERRS:rkblhwq:1,2015-11-07T16:45:00Z,26.0257,-81.7332,1.2,28.2,1111122 
NERRS,ioos:station:NOAA.NERRS:rkblhwq:1,2015-11-07T17:45:00Z,26.0257,-81.7332,1.09,27.1,1111122 
NERRS,ioos:station:NOAA.NERRS:rkblhwq:1,2015-11-07T18:45:00Z,26.0257,-81.7332,0.97,27.3,1111122 
NERRS,ioos:station:NOAA.NERRS:rkblhwq:1,2015-11-07T20:45:00Z,26.0257,-81.7332,0.76,27.4,1111122 
NERRS,ioos:station:NOAA.NERRS:rkblhwq:1,2015-11-07T21:45:00Z,26.0257,-81.7332,0.69,27.6,1111122 
NERRS,ioos:station:NOAA.NERRS:rkblhwq:1,2015-11-07T23:45:00Z,26.0257,-81.7332,0.82,28.1,1111122 
NERRS,ioos:station:NOAA.NERRS:rkblhwq:1,2015-11-08T00:45:00Z,26.0257,-81.7332,0.95,28.0,1111122 
NERRS,ioos:station:NOAA.NERRS:rkblhwq:1,2015-11-08T01:45:00Z,26.0257,-81.7332,1.08,28.2,1111122 
NERRS,ioos:station:NOAA.NERRS:rkblhwq:1,2015-11-08T02:45:00Z,26.0257,-81.7332,1.19,28.5,1111122 
NERRS,ioos:station:NOAA.NERRS:rkblhwq:1,2015-11-08T03:45:00Z,26.0257,-81.7332,1.27,29.3,1111122 
NERRS,ioos:station:NOAA.NERRS:rkblhwq:1,2015-11-08T04:45:00Z,26.0257,-81.7332,1.29,28.6,1111122 
NERRS,ioos:station:NOAA.NERRS:rkblhwq:1,2015-11-08T05:45:00Z,26.0257,-81.7332,1.19,27.4,1111122 
NERRS,ioos:station:NOAA.NERRS:rkblhwq:1,2015-11-08T06:45:00Z,26.0257,-81.7332,1.05,26.2,1111122 
NERRS,ioos:station:NOAA.NERRS:rkblhwq:1,2015-11-08T07:45:00Z,26.0257,-81.7332,0.9,27.4,1111122 
NERRS,ioos:station:NOAA.NERRS:rkblhwq:1,2015-11-08T08:45:00Z,26.0257,-81.7332,0.75,27.1,1111122 
NERRS,ioos:station:NOAA.NERRS:rkblhwq:1,2015-11-08T09:45:00Z,26.0257,-81.7332,0.62,26.8,1111122 
NERRS,ioos:station:NOAA.NERRS:rkblhwq:1,2015-11-08T10:45:00Z,26.0257,-81.7332,0.55,24.2,1111122 
NERRS,ioos:station:NOAA.NERRS:rkblhwq:1,2015-11-08T11:45:00Z,26.0257,-81.7332,0.63,26.2,1111122 
NERRS,ioos:station:NOAA.NERRS:rkblhwq:1,2015-11-08T12:45:00Z,26.0257,-81.7332,0.77,26.6,1111122 
NERRS,ioos:station:NOAA.NERRS:rkblhwq:1,2015-11-08T13:45:00Z,26.0257,-81.7332,0.93,27.4,1111122 
NERRS,ioos:station:NOAA.NERRS:rkblhwq:1,2015-11-08T14:45:00Z,26.0257,-81.7332,1.08,27.8,1111122 
NERRS,ioos:station:NOAA.NERRS:rkblhwq:1,2015-11-08T15:45:00Z,26.0257,-81.7332,1.2,28.3,1111122 
NERRS,ioos:station:NOAA.NERRS:rkblhwq:1,2015-11-08T16:45:00Z,26.0257,-81.7332,1.28,28.9,1111122 
NERRS,ioos:station:NOAA.NERRS:rkblhwq:1,2015-11-08T17:45:00Z,26.0257,-81.7332,1.29,28.8,1111122 
NERRS,ioos:station:NOAA.NERRS:rkblhwq:1,2015-11-08T18:45:00Z,26.0257,-81.7332,1.18,28.4,1111122 
NERRS,ioos:station:NOAA.NERRS:rkblhwq:1,2015-11-08T19:45:00Z,26.0257,-81.7332,1.07,28.6,1111122 
NERRS,ioos:station:NOAA.NERRS:rkblhwq:1,2015-11-08T20:45:00Z,26.0257,-81.7332,0.95,28.6,1111122 
NERRS,ioos:station:NOAA.NERRS:rkblhwq:1,2015-11-08T21:45:00Z,26.0257,-81.7332,0.84,28.0,1111122 
NERRS,ioos:station:NOAA.NERRS:rkblhwq:1,2015-11-08T23:45:00Z,26.0257,-81.7332,0.83,27.4,1111122 
NERRS,ioos:station:NOAA.NERRS:rkblhwq:1,2015-11-09T00:45:00Z,26.0257,-81.7332,0.98,28.0,1111122 
NERRS,ioos:station:NOAA.NERRS:rkblhwq:1,2015-11-09T01:45:00Z,26.0257,-81.7332,1.12,28.6,1111122 
NERRS,ioos:station:NOAA.NERRS:rkblhwq:1,2015-11-09T02:45:00Z,26.0257,-81.7332,1.25,28.9,1111122 
NERRS,ioos:station:NOAA.NERRS:rkblhwq:1,2015-11-09T03:45:00Z,26.0257,-81.7332,1.33,29.8,1111122 
NERRS,ioos:station:NOAA.NERRS:rkblhwq:1,2015-11-09T04:45:00Z,26.0257,-81.7332,1.37,29.9,1111122 
NERRS,ioos:station:NOAA.NERRS:rkblhwq:1,2015-11-09T05:45:00Z,26.0257,-81.7332,1.32,28.9,1111122 
NERRS,ioos:station:NOAA.NERRS:rkblhwq:1,2015-11-09T06:45:00Z,26.0257,-81.7332,1.21,29.3,1111122 
NERRS,ioos:station:NOAA.NERRS:rkblhwq:1,2015-11-09T07:45:00Z,26.0257,-81.7332,1.06,29.0,1111122 
NERRS,ioos:station:NOAA.NERRS:rkblhwq:1,2015-11-09T08:45:00Z,26.0257,-81.7332,0.9,28.1,1111122 
NERRS,ioos:station:NOAA.NERRS:rkblhwq:1,2015-11-09T09:45:00Z,26.0257,-81.7332,0.74,26.8,1111122 
NERRS,ioos:station:NOAA.NERRS:rkblhwq:1,2015-11-09T10:45:00Z,26.0257,-81.7332,0.61,23.1,1111122 
NERRS,ioos:station:NOAA.NERRS:rkblhwq:1,2015-11-09T11:45:00Z,26.0257,-81.7332,0.54,27.5,1111122 
NERRS,ioos:station:NOAA.NERRS:rkblhwq:1,2015-11-09T12:45:00Z,26.0257,-81.7332,0.63,27.0,1111122 
NERRS,ioos:station:NOAA.NERRS:rkblhwq:1,2015-11-09T13:45:00Z,26.0257,-81.7332,0.8,26.9,1111122 
NERRS,ioos:station:NOAA.NERRS:rkblhwq:1,2015-11-09T14:45:00Z,26.0257,-81.7332,0.96,28.2,1111122 
NERRS,ioos:station:NOAA.NERRS:rkblhwq:1,2015-11-09T15:45:00Z,26.0257,-81.7332,1.11,28.4,1111122 
NERRS,ioos:station:NOAA.NERRS:rkblhwq:1,2015-11-09T17:45:00Z,26.0257,-81.7332,1.28,29.3,1111122 
NERRS,ioos:station:NOAA.NERRS:rkblhwq:1,2015-11-09T18:45:00Z,26.0257,-81.7332,1.2,29.1,1111122 
NERRS,ioos:station:NOAA.NERRS:rkblhwq:1,2015-11-09T19:45:00Z,26.0257,-81.7332,1.08,29.1,1111122 
NERRS,ioos:station:NOAA.NERRS:rkblhwq:1,2015-11-09T20:45:00Z,26.0257,-81.7332,0.97,28.9,1111122 
NERRS,ioos:station:NOAA.NERRS:rkblhwq:1,2015-11-09T21:45:00Z,26.0257,-81.7332,0.87,28.7,1111122 
NERRS,ioos:station:NOAA.NERRS:rkblhwq:1,2015-11-09T23:45:00Z,26.0257,-81.7332,0.77,28.2,1111122 
NERRS,ioos:station:NOAA.NERRS:rkblhwq:1,2015-11-10T00:45:00Z,26.0257,-81.7332,0.88,28.4,1111122 
NERRS,ioos:station:NOAA.NERRS:rkblhwq:1,2015-11-10T01:45:00Z,26.0257,-81.7332,1.03,28.6,1111122 
NERRS,ioos:station:NOAA.NERRS:rkblhwq:1,2015-11-10T02:45:00Z,26.0257,-81.7332,1.17,28.9,1111122 
NERRS,ioos:station:NOAA.NERRS:rkblhwq:1,2015-11-10T03:45:00Z,26.0257,-81.7332,1.28,29.5,1111122 
NERRS,ioos:station:NOAA.NERRS:rkblhwq:1,2015-11-10T04:45:00Z,26.0257,-81.7332,1.36,30.0,1111122 
NERRS,ioos:station:NOAA.NERRS:rkblhwq:1,2015-11-10T05:45:00Z,26.0257,-81.7332,1.36,29.8,1111122 
NERRS,ioos:station:NOAA.NERRS:rkblhwq:1,2015-11-10T06:45:00Z,26.0257,-81.7332,1.27,29.7,1111122 
NERRS,ioos:station:NOAA.NERRS:rkblhwq:1,2015-11-10T07:45:00Z,26.0257,-81.7332,1.14,29.0,1111122 
NERRS,ioos:station:NOAA.NERRS:rkblhwq:1,2015-11-10T09:45:00Z,26.0257,-81.7332,0.82,28.5,1111122 
NERRS,ioos:station:NOAA.NERRS:rkblhwq:1,2015-11-10T10:45:00Z,26.0257,-81.7332,0.68,26.6,1111122 
NERRS,ioos:station:NOAA.NERRS:rkblhwq:1,2015-11-10T11:45:00Z,26.0257,-81.7332,0.57,27.4,1111122 
NERRS,ioos:station:NOAA.NERRS:rkblhwq:1,2015-11-10T12:45:00Z,26.0257,-81.7332,0.59,26.9,1111122 
NERRS,ioos:station:NOAA.NERRS:rkblhwq:1,2015-11-10T13:45:00Z,26.0257,-81.7332,0.72,27.4,1111122 
NERRS,ioos:station:NOAA.NERRS:rkblhwq:1,2015-11-10T14:45:00Z,26.0257,-81.7332,0.86,28.1,1111122 
NERRS,ioos:station:NOAA.NERRS:rkblhwq:1,2015-11-10T15:45:00Z,26.0257,-81.7332,1.03,28.6,1111122 
NERRS,ioos:station:NOAA.NERRS:rkblhwq:1,2015-11-10T16:45:00Z,26.0257,-81.7332,1.18,29.2,1111122 
NERRS,ioos:station:NOAA.NERRS:rkblhwq:1,2015-11-10T17:45:00Z,26.0257,-81.7332,1.28,29.5,1111122 
NERRS,ioos:station:NOAA.NERRS:rkblhwq:1,2015-11-10T18:45:00Z,26.0257,-81.7332,1.28,29.2,1111122 
NERRS,ioos:station:NOAA.NERRS:rkblhwq:1,2015-11-10T19:45:00Z,26.0257,-81.7332,1.17,29.7,1111122 
NERRS,ioos:station:NOAA.NERRS:rkblhwq:1,2015-11-10T20:45:00Z,26.0257,-81.7332,1.04,29.2,1111122 
NERRS,ioos:station:NOAA.NERRS:rkblhwq:1,2015-11-10T21:45:00Z,26.0257,-81.7332,0.91,28.9,1111122 
NERRS,ioos:station:NOAA.NERRS:rkblhwq:1,2015-11-10T22:45:00Z,26.0257,-81.7332,0.79,28.2,1111122 
NERRS,ioos:station:NOAA.NERRS:rkblhwq:1,2015-11-10T23:45:00Z,26.0257,-81.7332,0.73,27.8,1111122 
NERRS,ioos:station:NOAA.NERRS:rkblhwq:1,2015-11-11T00:45:00Z,26.0257,-81.7332,0.78,27.7,1111122 
NERRS,ioos:station:NOAA.NERRS:rkblhwq:1,2015-11-11T01:45:00Z,26.0257,-81.7332,0.9,28.1,1111122 
NERRS,ioos:station:NOAA.NERRS:rkblhwq:1,2015-11-11T02:45:00Z,26.0257,-81.7332,1.04,28.3,1111122 
NERRS,ioos:station:NOAA.NERRS:rkblhwq:1,2015-11-11T03:45:00Z,26.0257,-81.7332,1.17,29.1,1111122 
NERRS,ioos:station:NOAA.NERRS:rkblhwq:1,2015-11-11T04:45:00Z,26.0257,-81.7332,1.27,29.9,1111122 
NERRS,ioos:station:NOAA.NERRS:rkblhwq:1,2015-11-11T05:45:00Z,26.0257,-81.7332,1.3,29.7,1111122 
NERRS,ioos:station:NOAA.NERRS:rkblhwq:1,2015-11-11T06:45:00Z,26.0257,-81.7332,1.23,29.1,1111122 
NERRS,ioos:station:NOAA.NERRS:rkblhwq:1,2015-11-11T07:45:00Z,26.0257,-81.7332,1.09,28.4,1111122 
NERRS,ioos:station:NOAA.NERRS:rkblhwq:1,2015-11-11T09:45:00Z,26.0257,-81.7332,0.77,28.5,1111122 
NERRS,ioos:station:NOAA.NERRS:rkblhwq:1,2015-11-11T10:45:00Z,26.0257,-81.7332,0.63,27.1,1111122 
NERRS,ioos:station:NOAA.NERRS:rkblhwq:1,2015-11-11T12:45:00Z,26.0257,-81.7332,0.44,26.9,1111122 
NERRS,ioos:station:NOAA.NERRS:rkblhwq:1,2015-11-11T13:45:00Z,26.0257,-81.7332,0.51,26.6,1111122 
NERRS,ioos:station:NOAA.NERRS:rkblhwq:1,2015-11-11T14:45:00Z,26.0257,-81.7332,0.65,26.5,1111122 
NERRS,ioos:station:NOAA.NERRS:rkblhwq:1,2015-11-11T15:45:00Z,26.0257,-81.7332,0.81,27.5,1111122 